TimeCDT,TemperatureF,Dew PointF,Humidity,Sea Level PressureIn,VisibilityMPH,Wind Direction,Wind SpeedMPH,Gust SpeedMPH,PrecipitationIn,Events,Conditions,WindDirDegrees,DateUTC
12:53 AM,73.9,69.1,85,29.92,10.0,ENE,13.8,-,N/A,,Overcast,70,2013-08-03 05:53:00
1:11 AM,73.4,69.8,88,29.99,10.0,ENE,15.0,20.7,N/A,,Overcast,70,2013-08-03 06:11:00
1:53 AM,73.9,69.1,85,29.92,10.0,NE,12.7,-,N/A,,Overcast,50,2013-08-03 06:53:00
2:53 AM,73.0,69.1,87,29.94,10.0,ENE,11.5,-,N/A,,Overcast,70,2013-08-03 07:53:00
3:53 AM,73.0,68.0,84,29.93,10.0,ENE,9.2,-,N/A,,Overcast,60,2013-08-03 08:53:00
4:53 AM,72.0,68.0,87,29.94,10.0,ENE,11.5,-,N/A,,Overcast,60,2013-08-03 09:53:00
5:53 AM,71.1,68.0,90,29.96,10.0,ENE,11.5,-,N/A,,Overcast,60,2013-08-03 10:53:00
6:26 AM,69.8,68.0,94,30.05,7.0,NE,12.7,19.6,N/A,,Overcast,50,2013-08-03 11:26:00
6:53 AM,69.1,68.0,96,29.98,4.0,ENE,13.8,-,N/A,,Overcast,60,2013-08-03 11:53:00
7:53 AM,70.0,66.9,90,29.99,8.0,East,10.4,-,N/A,,Overcast,80,2013-08-03 12:53:00
8:53 AM,69.1,66.0,90,30.01,7.0,ENE,15.0,20.7,N/A,,Overcast,70,2013-08-03 13:53:00
9:53 AM,69.1,66.0,90,30.01,8.0,ENE,11.5,-,N/A,,Overcast,60,2013-08-03 14:53:00
10:53 AM,70.0,66.0,87,30.04,9.0,ENE,11.5,-,N/A,,Overcast,70,2013-08-03 15:53:00
11:21 AM,71.6,66.2,83,30.10,10.0,ENE,12.7,-,N/A,,Overcast,60,2013-08-03 16:21:00
11:53 AM,71.1,64.9,81,30.05,10.0,ENE,11.5,-,N/A,,Overcast,70,2013-08-03 16:53:00
12:53 PM,73.9,66.0,76,30.07,10.0,NE,13.8,19.6,N/A,,Overcast,50,2013-08-03 17:53:00
1:53 PM,73.9,66.0,76,30.07,10.0,ENE,17.3,23.0,N/A,,Overcast,60,2013-08-03 18:53:00
2:53 PM,75.0,66.0,73,30.09,10.0,ENE,16.1,25.3,N/A,,Overcast,60,2013-08-03 19:53:00
3:53 PM,73.9,64.9,73,30.09,10.0,NE,18.4,27.6,N/A,,Overcast,50,2013-08-03 20:53:00
4:53 PM,72.0,64.9,78,30.08,10.0,ENE,17.3,25.3,N/A,,Overcast,70,2013-08-03 21:53:00
5:53 PM,75.9,66.9,74,30.04,10.0,East,17.3,26.5,N/A,,Scattered Clouds,80,2013-08-03 22:53:00
6:53 PM,75.9,66.9,74,30.05,10.0,East,15.0,-,N/A,,Scattered Clouds,90,2013-08-03 23:53:00
7:16 PM,75.2,66.2,73,30.12,10.0,East,11.5,-,N/A,,Mostly Cloudy,90,2013-08-04 00:16:00
7:53 PM,75.0,66.9,76,30.05,10.0,East,12.7,-,N/A,,Overcast,80,2013-08-04 00:53:00
8:14 PM,73.4,66.2,78,30.12,10.0,East,10.4,-,N/A,,Mostly Cloudy,90,2013-08-04 01:14:00
8:53 PM,73.0,66.9,81,30.06,10.0,East,8.1,-,N/A,,Clear,90,2013-08-04 01:53:00
9:53 PM,72.0,68.0,87,30.09,10.0,Calm,Calm,-,N/A,,Clear,0,2013-08-04 02:53:00
10:49 PM,71.6,68.0,88,30.16,10.0,NE,8.1,-,N/A,,Mostly Cloudy,40,2013-08-04 03:49:00
10:53 PM,72.0,68.0,87,30.11,10.0,NE,6.9,-,N/A,,Mostly Cloudy,50,2013-08-04 03:53:00
11:53 PM,72.0,66.9,84,30.09,10.0,ENE,10.4,-,N/A,,Overcast,70,2013-08-04 04:53:00